FW0019 Weather Reports


time (UTC)temp
F
wind
direction
speed
knots
gust
knots
rain 1hr
in
rain 24hr
in
rain mn
in
humidity
%
barometer
mb
20230208174606 48 286 14.8 20.9 0.00 0.00 0.00 44 1025.8
20230208173055 47 281 16.5 20.9 0.00 0.00 0.00 43 1025.7
20230208171551 47 296 13.0 20.0 0.00 0.00 0.00 46 1025.7
20230208164548 46 281 12.2 17.4 0.00 0.00 0.00 41 1025.8
20230208163047 46 299 13.0 20.0 0.00 0.00 0.00 46 1025.8
20230208161543 45 281 12.2 18.2 0.00 0.00 0.00 48 1025.7
20230208154541 43 109 4.3 13.0 0.00 0.00 0.00 39 1025.4
20230208153043 42 107 1.7 7.0 0.00 0.00 0.00 39 1025.3
20230208151537 40 88 0.9 3.5 0.00 0.00 0.00 41 1025.1
20230208144531 41 315 6.1 9.6 0.00 0.00 0.00 44 1025.0
20230208143036 41 328 8.7 12.2 0.00 0.00 0.00 43 1024.8
20230208141528 40 314 8.7 12.2 0.00 0.00 0.00 45 1024.6
20230208134530 40 296 8.7 13.0 0.00 0.00 0.00 46 1024.5
20230208133039 40 305 8.7 11.3 0.00 0.00 0.00 46 1024.3
20230208131525 40 300 8.7 11.3 0.00 0.00 0.00 42 1024.2
20230208124522 40 310 7.8 10.4 0.00 0.00 0.00 42 1024.2
20230208123025 40 312 7.0 9.6 0.00 0.00 0.00 44 1024.1
20230208121519 40 289 8.7 12.2 0.00 0.00 0.00 48 1024.0
20230208114517 40 29 2.6 10.4 0.00 0.00 0.00 38 1024.0
20230208113016 40 49 2.6 9.6 0.00 0.00 0.00 39 1024.0
20230208111528 39 49 1.7 8.7 0.00 0.00 0.00 39 1024.2
20230208104511 39 89 1.7 8.7 0.00 0.00 0.00 40 1024.5
20230208103011 39 74 1.7 7.8 0.00 0.00 0.00 40 1024.7
20230208101507 39 72 1.7 7.8 0.00 0.00 0.00 40 1024.8
20230208094503 39 89 0.9 7.0 0.00 0.00 0.00 40 1025.0
20230208093003 39 80 0.9 7.0 0.00 0.00 0.00 39 1025.0
20230208091600 40 44 0.9 5.2 0.00 0.00 0.00 39 1025.1
20230208084559 40 74 2.6 10.4 0.00 0.00 0.00 39 1025.1
20230208083101 40 108 3.5 8.7 0.00 0.00 0.00 39 1025.2
20230208081551 40 77 2.6 8.7 0.00 0.00 0.00 40 1025.1
20230208074549 40 332 7.8 10.4 0.00 0.00 0.00 43 1025.4
20230208073055 40 327 7.8 12.2 0.00 0.00 0.00 45 1025.4
20230208071548 40 311 7.8 10.4 0.00 0.00 0.00 44 1025.4
20230208064602 40 318 6.1 9.6 0.00 0.00 0.00 45 1025.4
20230208063056 39 314 7.0 9.6 0.00 0.00 0.00 45 1025.3
20230208061557 39 321 7.8 11.3 0.00 0.00 0.00 45 1025.4
20230208054550 37 302 7.8 10.4 0.00 0.00 0.00 58 1025.2
20230208053048 38 307 7.0 12.2 0.00 0.00 0.00 53 1025.1
20230208051552 36 313 7.0 10.4 0.00 0.00 0.00 57 1025.0
20230208044545 38 340 7.0 9.6 0.00 0.00 0.00 47 1025.0
20230208043041 34 324 4.3 8.7 0.00 0.00 0.00 58 1024.8
20230208041538 33 290 5.2 8.7 0.00 0.00 0.00 63 1024.9
20230208034542 33 286 2.6 7.8 0.00 0.00 0.00 66 1024.9
20230208033033 34 286 0.9 2.6 0.00 0.00 0.00 65 1024.9
20230208031549 34 302 1.7 3.5 0.00 0.00 0.00 66 1024.9
20230208024526 37 298 0.0 2.6 0.00 0.00 0.00 54 1024.7
20230208023022 38 333 1.7 7.0 0.00 0.00 0.00 51 1024.8
20230208021530 38 289 0.9 2.6 0.00 0.00 0.00 51 1024.8
20230208014558 40 300 2.6 4.3 0.00 0.00 0.00 49 1024.7
20230208013112 41 326 1.7 4.3 0.00 0.00 0.00 46 1024.6
20230208011528 42 344 1.7 3.5 0.00 0.00 0.00 44 1024.5
20230208010027 43 317 3.5 4.3 0.00 0.00 0.00 45 1024.5
20230208004526 44 327 3.5 7.8 0.00 0.00 0.00 46 1024.5
20230208003039 45 273 5.2 9.6 0.00 0.00 0.00 46 1024.5
20230208001526 47 279 6.1 8.7 0.00 0.00 0.00 46 1024.6
20230208000025 49 273 7.8 10.4 0.00 0.00 0.00 45 1024.6
20230207234525 49 283 7.0 8.7 0.00 0.00 0.00 46 1024.7
20230207233025 50 296 7.0 10.4 0.00 0.00 0.00 42 1024.8
20230207231527 50 288 7.0 8.7 0.00 0.00 0.00 45 1025.0
20230207230027 49 284 7.0 8.7 0.00 0.00 0.00 40 1024.9
20230207224523 49 278 8.7 11.3 0.00 0.00 0.00 44 1024.9
20230207223022 49 294 7.0 13.9 0.00 0.00 0.00 42 1024.8
20230207221522 50 285 7.8 13.0 0.00 0.00 0.00 42 1024.7
20230207220024 49 296 8.7 14.8 0.00 0.00 0.00 40 1024.8
20230207214521 49 288 9.6 13.9 0.00 0.00 0.00 40 1024.9
20230207213036 50 283 9.6 15.6 0.00 0.00 0.00 44 1024.7
20230207211519 49 302 9.6 16.5 0.00 0.00 0.00 43 1024.9
20230207210024 49 269 10.4 15.6 0.00 0.00 0.00 43 1025.0
20230207204529 49 286 11.3 16.5 0.00 0.00 0.00 45 1025.2
20230207203019 49 275 11.3 17.4 0.00 0.00 0.00 43 1025.3
20230207201517 49 288 11.3 18.2 0.00 0.00 0.00 43 1025.4
20230207200015 48 269 14.8 18.2 0.00 0.00 0.00 47 1025.5
20230207194513 48 271 13.9 19.1 0.00 0.00 0.00 47 1025.7
20230207193011 47 284 12.2 17.4 0.00 0.00 0.00 48 1025.9
20230207191510 46 271 13.9 20.0 0.00 0.00 0.00 49 1026.1
20230207190010 47 298 10.4 13.9 0.00 0.00 0.00 46 1026.2
20230207184509 47 277 12.2 15.6 0.00 0.00 0.00 51 1026.4
20230207183007 46 294 12.2 14.8 0.00 0.00 0.00 49 1026.5
20230207181510 46 290 11.3 16.5 0.00 0.00 0.00 51 1026.4
20230207180007 45 269 8.7 15.6 0.00 0.00 0.00 46 1026.6